Flood From: 21-02-2018 18:00 Until: 22-02-2018 16:00 warning for: Flood Level: Yellow info button

Although rather usual in this region, locally or potentially dangerous phenomena are expected. (such as local winds, summer thunderstorms, rising streams or high waves) Be aware and pay attention to the latest weather updates, especially if you carry out activities exposed to weather or close to a stream or shoreline. 


Meteo18 Weather Cam more information Meteo18 Weather Cam


Thunder radar more information blitzortung!


Rain radar more information rain snow radar


Visit our other weather sites:

Template documentation
and downloads

And another site



Weather Underground History page Text

Daily Summary for January 25, 2018 Units:  Both    English   Metric
« Previous Day
Next Day »
Daily Weekly Monthly Yearly Custom
  High: Low: Average:
Temperature: TemperatureC °F /  -17.8 °C 5.9 °F /  -14.5 °C 8.1 °F /  -13.3 °C
Dew Point: DewpointC °F /  -17.8 °C 5.5 °F /  -14.7 °C 7.2 °F /  -13.8 °C
Humidity: Humidity % 86 % 94 %
Wind Speed: WindSpeedKMH mph /  0 km/h - 2.9 mph /  4.7 km/h
Wind Gust: WindSpeedGustKMH mph /  0 km/h - -
Wind:- - SSW
Pressure: PressurehPa in /  0 hPa 1012.8 in /  34293.4 hPa -
Precipitation: 29.7 in /  754.38 mm    
Historical Graphs
 
 
Tabular Data for January 25, 2018
Time Temperature Dew Point Pressure Wind Wind Speed Wind Gust Humidity Rainfall Rate (Hourly)
TemperatureC °F /  -17.8 °C DewpointC °F /  -17.8 °C PressurehPa in /  0 hPa Calm     Humidity % HourlyPrecipMM in /  0 mm
00:02 10.1 °F /  -12.2 °C 8.0 °F /  -13.3 °C 1018.8 in /  34496.6 hPa SSW 9.7 mph /  15.6 km/h 17.7 mph /  28.5 km/h 87 % 0.0 in /  0 mm
00:08 10.1 °F /  -12.2 °C 8.0 °F /  -13.3 °C 1018.8 in /  34496.6 hPa SW 11.1 mph /  17.9 km/h 16.1 mph /  25.9 km/h 87 % 0.0 in /  0 mm
00:14 10.2 °F /  -12.1 °C 8.1 °F /  -13.3 °C 1018.8 in /  34496.6 hPa SSW 11.1 mph /  17.9 km/h 17.7 mph /  28.5 km/h 87 % 0.0 in /  0 mm
00:20 10.2 °F /  -12.1 °C 8.1 °F /  -13.3 °C 1018.8 in /  34496.6 hPa SSW 13.0 mph /  20.9 km/h 17.7 mph /  28.5 km/h 87 % 0.0 in /  0 mm
00:26 10.3 °F /  -12.1 °C 8.2 °F /  -13.2 °C 1018.8 in /  34496.6 hPa SSW 11.1 mph /  17.9 km/h 17.7 mph /  28.5 km/h 87 % 0.0 in /  0 mm
00:32 10.3 °F /  -12.1 °C 8.1 °F /  -13.3 °C 1018.8 in /  34496.6 hPa SSW 14.3 mph /  23 km/h 16.1 mph /  25.9 km/h 86 % 0.0 in /  0 mm
00:38 10.3 °F /  -12.1 °C 8.2 °F /  -13.2 °C 1018.8 in /  34496.6 hPa SW 14.3 mph /  23 km/h 17.7 mph /  28.5 km/h 87 % 0.0 in /  0 mm
00:44 10.3 °F /  -12.1 °C 8.2 °F /  -13.2 °C 1018.8 in /  34496.6 hPa SSW 7.9 mph /  12.7 km/h 12.9 mph /  20.8 km/h 87 % 0.0 in /  0 mm
00:50 10.2 °F /  -12.1 °C 8.1 °F /  -13.3 °C 1018.8 in /  34496.6 hPa SSW 6.4 mph /  10.3 km/h 9.7 mph /  15.6 km/h 87 % 0.0 in /  0 mm
00:56 10.2 °F /  -12.1 °C 8.1 °F /  -13.3 °C 1018.8 in /  34496.6 hPa SSW 7.9 mph /  12.7 km/h 12.9 mph /  20.8 km/h 87 % 0.0 in /  0 mm
01:02 10.2 °F /  -12.1 °C 8.1 °F /  -13.3 °C 1018.8 in /  34496.6 hPa SSW 6.4 mph /  10.3 km/h 11.3 mph /  18.2 km/h 87 % 0.0 in /  0 mm
01:08 10.2 °F /  -12.1 °C 8.3 °F /  -13.2 °C 1018.8 in /  34496.6 hPa SSW 6.4 mph /  10.3 km/h 11.3 mph /  18.2 km/h 88 % 0.0 in /  0 mm
01:14 10.1 °F /  -12.2 °C 8.2 °F /  -13.2 °C 1018.8 in /  34496.6 hPa SSW 13.0 mph /  20.9 km/h 13.0 mph /  20.9 km/h 88 % 0.0 in /  0 mm
01:20 10.1 °F /  -12.2 °C 8.2 °F /  -13.2 °C 1018.8 in /  34496.6 hPa SSW 7.9 mph /  12.7 km/h 11.3 mph /  18.2 km/h 88 % 0.0 in /  0 mm
01:26 10.0 °F /  -12.2 °C 8.3 °F /  -13.2 °C 1018.8 in /  34496.6 hPa SSW 6.4 mph /  10.3 km/h 9.7 mph /  15.6 km/h 89 % 0.0 in /  0 mm
01:32 9.9 °F /  -12.3 °C 8.2 °F /  -13.2 °C 1018.8 in /  34496.6 hPa SW 7.9 mph /  12.7 km/h 11.3 mph /  18.2 km/h 89 % 0.0 in /  0 mm
01:38 9.9 °F /  -12.3 °C 8.2 °F /  -13.2 °C 1018.8 in /  34496.6 hPa SSW 6.4 mph /  10.3 km/h 8.0 mph /  12.9 km/h 89 % 0.0 in /  0 mm
01:44 9.9 °F /  -12.3 °C 8.2 °F /  -13.2 °C 1018.8 in /  34496.6 hPa SSW 4.7 mph /  7.6 km/h 6.4 mph /  10.3 km/h 89 % 0.0 in /  0 mm
01:50 9.9 °F /  -12.3 °C 8.2 °F /  -13.2 °C 1018.8 in /  34496.6 hPa SSW 4.7 mph /  7.6 km/h 8.0 mph /  12.9 km/h 89 % 0.0 in /  0 mm
01:56 9.9 °F /  -12.3 °C 8.2 °F /  -13.2 °C 1018.8 in /  34496.6 hPa SSW 4.7 mph /  7.6 km/h 6.4 mph /  10.3 km/h 89 % 0.0 in /  0 mm
02:02 9.9 °F /  -12.3 °C 8.2 °F /  -13.2 °C 1018.8 in /  34496.6 hPa SSW 4.7 mph /  7.6 km/h 8.0 mph /  12.9 km/h 89 % 0.0 in /  0 mm
02:08 9.8 °F /  -12.3 °C 8.1 °F /  -13.3 °C 1018.8 in /  34496.6 hPa South 1.4 mph /  2.3 km/h 8.0 mph /  12.9 km/h 89 % 0.0 in /  0 mm
02:14 9.8 °F /  -12.3 °C 8.1 °F /  -13.3 °C 1018.8 in /  34496.6 hPa SSW 6.4 mph /  10.3 km/h 8.0 mph /  12.9 km/h 89 % 0.0 in /  0 mm
02:20 9.8 °F /  -12.3 °C 8.1 °F /  -13.3 °C 1018.8 in /  34496.6 hPa South 4.7 mph /  7.6 km/h 6.4 mph /  10.3 km/h 89 % 0.0 in /  0 mm
02:26 9.8 °F /  -12.3 °C 8.1 °F /  -13.3 °C 1018.5 in /  34486.4 hPa SSE 4.7 mph /  7.6 km/h 6.4 mph /  10.3 km/h 89 % 0.0 in /  0 mm
02:32 9.8 °F /  -12.3 °C 8.1 °F /  -13.3 °C 1018.5 in /  34486.4 hPa SSW 3.2 mph /  5.1 km/h 8.0 mph /  12.9 km/h 89 % 0.0 in /  0 mm
02:38 9.7 °F /  -12.4 °C 8.0 °F /  -13.3 °C 1018.5 in /  34486.4 hPa South 3.2 mph /  5.1 km/h 9.7 mph /  15.6 km/h 89 % 0.0 in /  0 mm
02:44 9.7 °F /  -12.4 °C 8.0 °F /  -13.3 °C 1018.5 in /  34486.4 hPa South 3.2 mph /  5.1 km/h 8.0 mph /  12.9 km/h 89 % 0.0 in /  0 mm
02:50 9.7 °F /  -12.4 °C 8.0 °F /  -13.3 °C 1018.5 in /  34486.4 hPa South 3.2 mph /  5.1 km/h 4.8 mph /  7.7 km/h 89 % 0.0 in /  0 mm
02:56 9.7 °F /  -12.4 °C 8.0 °F /  -13.3 °C 1018.5 in /  34486.4 hPa SSE 6.4 mph /  10.3 km/h 6.4 mph /  10.3 km/h 89 % 0.0 in /  0 mm
03:02 9.6 °F /  -12.4 °C 8.0 °F /  -13.3 °C 1018.5 in /  34486.4 hPa ESE 4.7 mph /  7.6 km/h 6.4 mph /  10.3 km/h 90 % 0.0 in /  0 mm
03:08 9.6 °F /  -12.4 °C 8.0 °F /  -13.3 °C 1018.2 in /  34476.3 hPa SSE 1.4 mph /  2.3 km/h 8.0 mph /  12.9 km/h 90 % 0.0 in /  0 mm
03:14 9.6 °F /  -12.4 °C 8.0 °F /  -13.3 °C 1018.2 in /  34476.3 hPa South 3.2 mph /  5.1 km/h 8.0 mph /  12.9 km/h 90 % 0.0 in /  0 mm
03:20 9.6 °F /  -12.4 °C 8.0 °F /  -13.3 °C 1018.2 in /  34476.3 hPa SSW 4.7 mph /  7.6 km/h 4.8 mph /  7.7 km/h 90 % 0.0 in /  0 mm
03:26 9.6 °F /  -12.4 °C 8.0 °F /  -13.3 °C 1017.8 in /  34462.7 hPa South 6.4 mph /  10.3 km/h 6.4 mph /  10.3 km/h 90 % 0.0 in /  0 mm
03:32 9.6 °F /  -12.4 °C 8.0 °F /  -13.3 °C 1017.8 in /  34462.7 hPa SSE 3.2 mph /  5.1 km/h 8.0 mph /  12.9 km/h 90 % 0.0 in /  0 mm
03:38 9.6 °F /  -12.4 °C 8.0 °F /  -13.3 °C 1017.8 in /  34462.7 hPa South 6.4 mph /  10.3 km/h 9.7 mph /  15.6 km/h 90 % 0.0 in /  0 mm
03:44 9.6 °F /  -12.4 °C 8.0 °F /  -13.3 °C 1017.8 in /  34462.7 hPa SW 4.7 mph /  7.6 km/h 6.4 mph /  10.3 km/h 90 % 0.0 in /  0 mm
03:50 9.6 °F /  -12.4 °C 8.0 °F /  -13.3 °C 1017.8 in /  34462.7 hPa SW 3.2 mph /  5.1 km/h 9.7 mph /  15.6 km/h 90 % 0.0 in /  0 mm
03:56 9.6 °F /  -12.4 °C 8.0 °F /  -13.3 °C 1017.8 in /  34462.7 hPa South 4.7 mph /  7.6 km/h 6.4 mph /  10.3 km/h 90 % 0.0 in /  0 mm
04:02 9.5 °F /  -12.5 °C 7.9 °F /  -13.4 °C 1017.5 in /  34452.6 hPa South 4.7 mph /  7.6 km/h 6.4 mph /  10.3 km/h 90 % 0.0 in /  0 mm
04:08 9.5 °F /  -12.5 °C 7.8 °F /  -13.4 °C 1017.5 in /  34452.6 hPa SSW 3.2 mph /  5.1 km/h 6.4 mph /  10.3 km/h 89 % 0.0 in /  0 mm
04:14 9.5 °F /  -12.5 °C 7.8 °F /  -13.4 °C 1017.5 in /  34452.6 hPa South 3.2 mph /  5.1 km/h 6.4 mph /  10.3 km/h 89 % 0.0 in /  0 mm
04:20 9.4 °F /  -12.6 °C 7.7 °F /  -13.5 °C 1017.5 in /  34452.6 hPa SSW 3.2 mph /  5.1 km/h 3.2 mph /  5.1 km/h 89 % 0.0 in /  0 mm
04:26 9.4 °F /  -12.6 °C 7.8 °F /  -13.4 °C 1017.5 in /  34452.6 hPa SSW 3.2 mph /  5.1 km/h 4.8 mph /  7.7 km/h 90 % 0.0 in /  0 mm
04:32 9.4 °F /  -12.6 °C 7.8 °F /  -13.4 °C 1017.5 in /  34452.6 hPa SSW 4.7 mph /  7.6 km/h 9.7 mph /  15.6 km/h 90 % 0.0 in /  0 mm
04:38 9.4 °F /  -12.6 °C 7.7 °F /  -13.5 °C 1017.5 in /  34452.6 hPa SSW 3.2 mph /  5.1 km/h 6.4 mph /  10.3 km/h 89 % 0.0 in /  0 mm
04:44 9.4 °F /  -12.6 °C 7.7 °F /  -13.5 °C 1017.5 in /  34452.6 hPa SSW 4.7 mph /  7.6 km/h 6.4 mph /  10.3 km/h 89 % 0.0 in /  0 mm
04:50 9.4 °F /  -12.6 °C 7.7 °F /  -13.5 °C 1017.5 in /  34452.6 hPa SSW 9.7 mph /  15.6 km/h 9.7 mph /  15.6 km/h 89 % 0.0 in /  0 mm
04:56 9.4 °F /  -12.6 °C 7.7 °F /  -13.5 °C 1017.5 in /  34452.6 hPa SSW 4.7 mph /  7.6 km/h 6.4 mph /  10.3 km/h 89 % 0.0 in /  0 mm
05:02 9.4 °F /  -12.6 °C 7.7 °F /  -13.5 °C 1017.2 in /  34442.4 hPa SSW 3.2 mph /  5.1 km/h 8.0 mph /  12.9 km/h 89 % 0.0 in /  0 mm
05:08 9.3 °F /  -12.6 °C 7.6 °F /  -13.6 °C 1017.2 in /  34442.4 hPa SSW 1.4 mph /  2.3 km/h 4.8 mph /  7.7 km/h 89 % 0.0 in /  0 mm
05:14 9.2 °F /  -12.7 °C 7.6 °F /  -13.6 °C 1017.5 in /  34452.6 hPa West 3.2 mph /  5.1 km/h 8.0 mph /  12.9 km/h 90 % 0.0 in /  0 mm
05:20 9.3 °F /  -12.6 °C 7.7 °F /  -13.5 °C 1017.2 in /  34442.4 hPa SSW 1.4 mph /  2.3 km/h 6.4 mph /  10.3 km/h 90 % 0.0 in /  0 mm
05:26 9.3 °F /  -12.6 °C 7.7 °F /  -13.5 °C 1017.2 in /  34442.4 hPa SSW 1.4 mph /  2.3 km/h 3.2 mph /  5.1 km/h 90 % 0.0 in /  0 mm
05:32 9.2 °F /  -12.7 °C 7.6 °F /  -13.6 °C 1017.2 in /  34442.4 hPa SW 3.2 mph /  5.1 km/h 3.2 mph /  5.1 km/h 90 % 0.0 in /  0 mm
05:38 9.2 °F /  -12.7 °C 7.6 °F /  -13.6 °C 1017.2 in /  34442.4 hPa SW 6.4 mph /  10.3 km/h 6.4 mph /  10.3 km/h 90 % 0.0 in /  0 mm
05:44 9.2 °F /  -12.7 °C 7.5 °F /  -13.6 °C 1017.5 in /  34452.6 hPa West 3.2 mph /  5.1 km/h 6.4 mph /  10.3 km/h 89 % 0.0 in /  0 mm
05:50 9.2 °F /  -12.7 °C 7.5 °F /  -13.6 °C 1017.5 in /  34452.6 hPa WSW 4.7 mph /  7.6 km/h 8.0 mph /  12.9 km/h 89 % 0.0 in /  0 mm
05:56 9.2 °F /  -12.7 °C 7.5 °F /  -13.6 °C 1017.2 in /  34442.4 hPa SW 4.7 mph /  7.6 km/h 8.0 mph /  12.9 km/h 89 % 0.0 in /  0 mm
06:02 9.2 °F /  -12.7 °C 7.5 °F /  -13.6 °C 1017.2 in /  34442.4 hPa SW 4.7 mph /  7.6 km/h 4.8 mph /  7.7 km/h 89 % 0.0 in /  0 mm
06:08 9.1 °F /  -12.7 °C 7.4 °F /  -13.7 °C 1017.2 in /  34442.4 hPa SW 3.2 mph /  5.1 km/h 6.4 mph /  10.3 km/h 89 % 0.0 in /  0 mm
06:14 9.1 °F /  -12.7 °C 7.5 °F /  -13.6 °C 1017.2 in /  34442.4 hPa SW 6.4 mph /  10.3 km/h 6.4 mph /  10.3 km/h 90 % 0.0 in /  0 mm
06:20 9.0 °F /  -12.8 °C 7.4 °F /  -13.7 °C 1017.2 in /  34442.4 hPa SSW 3.2 mph /  5.1 km/h 6.4 mph /  10.3 km/h 90 % 0.0 in /  0 mm
06:26 8.9 °F /  -12.8 °C 7.5 °F /  -13.6 °C 1017.2 in /  34442.4 hPa SW 7.9 mph /  12.7 km/h 8.0 mph /  12.9 km/h 91 % 0.0 in /  0 mm
06:32 8.8 °F /  -12.9 °C 7.4 °F /  -13.7 °C 1017.2 in /  34442.4 hPa SW 11.1 mph /  17.9 km/h 14.5 mph /  23.3 km/h 91 % 0.0 in /  0 mm
06:38 8.8 °F /  -12.9 °C 7.6 °F /  -13.6 °C 1017.2 in /  34442.4 hPa SW 9.7 mph /  15.6 km/h 12.9 mph /  20.8 km/h 92 % 0.0 in /  0 mm
06:44 8.7 °F /  -12.9 °C 7.6 °F /  -13.6 °C 1017.2 in /  34442.4 hPa SW 9.7 mph /  15.6 km/h 11.3 mph /  18.2 km/h 93 % 0.0 in /  0 mm
06:50 8.6 °F /  -13 °C 7.7 °F /  -13.5 °C 1016.8 in /  34428.8 hPa SW 3.2 mph /  5.1 km/h 11.3 mph /  18.2 km/h 94 % 0.3 in /  7.62 mm
06:56 8.5 °F /  -13.1 °C 7.6 °F /  -13.6 °C 1016.8 in /  34428.8 hPa SW 7.9 mph /  12.7 km/h 11.3 mph /  18.2 km/h 94 % 0.5 in /  12.7 mm
07:02 8.4 °F /  -13.1 °C 7.6 °F /  -13.6 °C 1016.8 in /  34428.8 hPa SSW 6.4 mph /  10.3 km/h 9.7 mph /  15.6 km/h 95 % 0.5 in /  12.7 mm
07:08 8.4 °F /  -13.1 °C 7.6 °F /  -13.6 °C 1016.8 in /  34428.8 hPa South 6.4 mph /  10.3 km/h 8.0 mph /  12.9 km/h 95 % 0.5 in /  12.7 mm
07:14 8.3 °F /  -13.2 °C 7.5 °F /  -13.6 °C 1016.8 in /  34428.8 hPa SW 7.9 mph /  12.7 km/h 8.0 mph /  12.9 km/h 95 % 0.8 in /  20.32 mm
07:20 8.3 °F /  -13.2 °C 7.7 °F /  -13.5 °C 1016.8 in /  34428.8 hPa SSW 3.2 mph /  5.1 km/h 6.4 mph /  10.3 km/h 96 % 0.8 in /  20.32 mm
07:26 8.2 °F /  -13.2 °C 7.6 °F /  -13.6 °C 1016.8 in /  34428.8 hPa South 3.2 mph /  5.1 km/h 6.4 mph /  10.3 km/h 96 % 1.0 in /  25.4 mm
07:32 8.2 °F /  -13.2 °C 7.6 °F /  -13.6 °C 1016.8 in /  34428.8 hPa South 4.7 mph /  7.6 km/h 4.8 mph /  7.7 km/h 96 % 1.0 in /  25.4 mm
07:38 8.2 °F /  -13.2 °C 7.6 °F /  -13.6 °C 1016.8 in /  34428.8 hPa South 4.7 mph /  7.6 km/h 8.0 mph /  12.9 km/h 96 % 1.0 in /  25.4 mm
07:44 8.2 °F /  -13.2 °C 7.6 °F /  -13.6 °C 1016.5 in /  34418.7 hPa SSW 4.7 mph /  7.6 km/h 6.4 mph /  10.3 km/h 96 % 1.3 in /  33.02 mm
07:51 8.2 °F /  -13.2 °C 7.6 °F /  -13.6 °C 1016.5 in /  34418.7 hPa SW 3.2 mph /  5.1 km/h 6.4 mph /  10.3 km/h 96 % 1.0 in /  25.4 mm
07:57 8.2 °F /  -13.2 °C 7.6 °F /  -13.6 °C 1016.5 in /  34418.7 hPa SSW 3.2 mph /  5.1 km/h 4.8 mph /  7.7 km/h 96 % 1.0 in /  25.4 mm
08:03 8.2 °F /  -13.2 °C 7.8 °F /  -13.4 °C 1016.5 in /  34418.7 hPa South 1.4 mph /  2.3 km/h 4.8 mph /  7.7 km/h 97 % 1.0 in /  25.4 mm
08:09 8.2 °F /  -13.2 °C 7.8 °F /  -13.4 °C 1016.5 in /  34418.7 hPa South 1.4 mph /  2.3 km/h 4.8 mph /  7.7 km/h 97 % 0.8 in /  20.32 mm
08:15 8.2 °F /  -13.2 °C 7.8 °F /  -13.4 °C 1016.1 in /  34405.1 hPa Calm   3.2 mph /  5.1 km/h 97 % 0.8 in /  20.32 mm
08:21 8.2 °F /  -13.2 °C 7.8 °F /  -13.4 °C 1016.1 in /  34405.1 hPa Calm   3.2 mph /  5.1 km/h 97 % 1.0 in /  25.4 mm
08:27 8.2 °F /  -13.2 °C 7.8 °F /  -13.4 °C 1016.1 in /  34405.1 hPa Calm   1.6 mph /  2.6 km/h 97 % 0.8 in /  20.32 mm
08:33 8.2 °F /  -13.2 °C 7.8 °F /  -13.4 °C 1016.1 in /  34405.1 hPa Calm   1.6 mph /  2.6 km/h 97 % 0.8 in /  20.32 mm
08:39 8.2 °F /  -13.2 °C 7.8 °F /  -13.4 °C 1016.1 in /  34405.1 hPa Calm   1.6 mph /  2.6 km/h 97 % 1.0 in /  25.4 mm
08:45 8.2 °F /  -13.2 °C 7.8 °F /  -13.4 °C 1016.1 in /  34405.1 hPa Calm   1.6 mph /  2.6 km/h 97 % 0.8 in /  20.32 mm
08:51 8.2 °F /  -13.2 °C 7.8 °F /  -13.4 °C 1016.1 in /  34405.1 hPa Calm   1.6 mph /  2.6 km/h 97 % 1.0 in /  25.4 mm
08:57 8.2 °F /  -13.2 °C 7.8 °F /  -13.4 °C 1016.1 in /  34405.1 hPa Calm     97 % 0.8 in /  20.32 mm
09:03 8.2 °F /  -13.2 °C 7.8 °F /  -13.4 °C 1016.1 in /  34405.1 hPa Calm   1.6 mph /  2.6 km/h 97 % 1.0 in /  25.4 mm
09:09 8.2 °F /  -13.2 °C 7.8 °F /  -13.4 °C 1015.8 in /  34395 hPa Calm     97 % 1.3 in /  33.02 mm
09:15 8.2 °F /  -13.2 °C 7.8 °F /  -13.4 °C 1015.8 in /  34395 hPa Calm   1.6 mph /  2.6 km/h 97 % 1.0 in /  25.4 mm
09:21 8.2 °F /  -13.2 °C 7.8 °F /  -13.4 °C 1015.8 in /  34395 hPa Calm   1.6 mph /  2.6 km/h 97 % 0.8 in /  20.32 mm
09:27 8.2 °F /  -13.2 °C 7.8 °F /  -13.4 °C 1015.8 in /  34395 hPa SE 1.4 mph /  2.3 km/h 3.2 mph /  5.1 km/h 97 % 0.8 in /  20.32 mm
09:33 8.2 °F /  -13.2 °C 7.8 °F /  -13.4 °C 1015.8 in /  34395 hPa Calm   1.6 mph /  2.6 km/h 97 % 0.8 in /  20.32 mm
09:39 8.2 °F /  -13.2 °C 7.8 °F /  -13.4 °C 1015.8 in /  34395 hPa SE 1.4 mph /  2.3 km/h 3.2 mph /  5.1 km/h 97 % 0.5 in /  12.7 mm
09:45 8.1 °F /  -13.3 °C 7.7 °F /  -13.5 °C 1015.5 in /  34384.8 hPa Calm   1.6 mph /  2.6 km/h 97 % 0.8 in /  20.32 mm
09:51 8.1 °F /  -13.3 °C 7.7 °F /  -13.5 °C 1015.5 in /  34384.8 hPa SE 1.4 mph /  2.3 km/h 1.6 mph /  2.6 km/h 97 % 0.5 in /  12.7 mm
09:57 8.1 °F /  -13.3 °C 7.7 °F /  -13.5 °C 1015.5 in /  34384.8 hPa Calm   1.6 mph /  2.6 km/h 97 % 0.5 in /  12.7 mm
10:03 8.1 °F /  -13.3 °C 7.7 °F /  -13.5 °C 1015.5 in /  34384.8 hPa SE 1.4 mph /  2.3 km/h 3.2 mph /  5.1 km/h 97 % 0.5 in /  12.7 mm
10:09 8.1 °F /  -13.3 °C 7.7 °F /  -13.5 °C 1015.5 in /  34384.8 hPa SSE 1.4 mph /  2.3 km/h 3.2 mph /  5.1 km/h 97 % 0.3 in /  7.62 mm
10:15 8.1 °F /  -13.3 °C 7.7 °F /  -13.5 °C 1015.5 in /  34384.8 hPa Calm   1.6 mph /  2.6 km/h 97 % 0.3 in /  7.62 mm
10:21 8.1 °F /  -13.3 °C 7.7 °F /  -13.5 °C 1015.5 in /  34384.8 hPa Calm   1.6 mph /  2.6 km/h 97 % 0.3 in /  7.62 mm
10:27 8.1 °F /  -13.3 °C 7.7 °F /  -13.5 °C 1015.5 in /  34384.8 hPa SSW 1.4 mph /  2.3 km/h 3.2 mph /  5.1 km/h 97 % 0.3 in /  7.62 mm
10:33 8.1 °F /  -13.3 °C 7.7 °F /  -13.5 °C 1015.5 in /  34384.8 hPa SSW 1.4 mph /  2.3 km/h 3.2 mph /  5.1 km/h 97 % 0.3 in /  7.62 mm
10:39 8.1 °F /  -13.3 °C 7.7 °F /  -13.5 °C 1015.5 in /  34384.8 hPa SSW 1.4 mph /  2.3 km/h 1.6 mph /  2.6 km/h 97 % 0.5 in /  12.7 mm
10:45 8.1 °F /  -13.3 °C 7.5 °F /  -13.6 °C 1015.5 in /  34384.8 hPa SSW 1.4 mph /  2.3 km/h 3.2 mph /  5.1 km/h 96 % 0.5 in /  12.7 mm
10:51 8.2 °F /  -13.2 °C 7.6 °F /  -13.6 °C 1015.5 in /  34384.8 hPa SW 3.2 mph /  5.1 km/h 3.2 mph /  5.1 km/h 96 % 0.5 in /  12.7 mm
10:57 8.2 °F /  -13.2 °C 7.6 °F /  -13.6 °C 1015.5 in /  34384.8 hPa SSE 1.4 mph /  2.3 km/h 4.8 mph /  7.7 km/h 96 % 0.8 in /  20.32 mm
11:03 8.2 °F /  -13.2 °C 7.6 °F /  -13.6 °C 1015.5 in /  34384.8 hPa South 1.4 mph /  2.3 km/h 4.8 mph /  7.7 km/h 96 % 0.8 in /  20.32 mm
11:10 8.2 °F /  -13.2 °C 7.6 °F /  -13.6 °C 1015.5 in /  34384.8 hPa SW 1.4 mph /  2.3 km/h 4.8 mph /  7.7 km/h 96 % 1.0 in /  25.4 mm
11:16 8.2 °F /  -13.2 °C 7.6 °F /  -13.6 °C 1015.5 in /  34384.8 hPa SW 1.4 mph /  2.3 km/h 3.2 mph /  5.1 km/h 96 % 1.0 in /  25.4 mm
11:22 8.2 °F /  -13.2 °C 7.6 °F /  -13.6 °C 1015.5 in /  34384.8 hPa South 1.4 mph /  2.3 km/h 3.2 mph /  5.1 km/h 96 % 1.3 in /  33.02 mm
11:28 8.2 °F /  -13.2 °C 7.6 °F /  -13.6 °C 1015.5 in /  34384.8 hPa SE 1.4 mph /  2.3 km/h 3.2 mph /  5.1 km/h 96 % 1.5 in /  38.1 mm
11:34 8.2 °F /  -13.2 °C 7.6 °F /  -13.6 °C 1015.1 in /  34371.3 hPa SSW 3.2 mph /  5.1 km/h 3.2 mph /  5.1 km/h 96 % 1.5 in /  38.1 mm
11:40 8.3 °F /  -13.2 °C 7.7 °F /  -13.5 °C 1015.1 in /  34371.3 hPa SSE 1.4 mph /  2.3 km/h 1.6 mph /  2.6 km/h 96 % 1.5 in /  38.1 mm
11:46 8.3 °F /  -13.2 °C 7.5 °F /  -13.6 °C 1015.1 in /  34371.3 hPa Calm   3.2 mph /  5.1 km/h 95 % 1.5 in /  38.1 mm
11:52 8.2 °F /  -13.2 °C 7.4 °F /  -13.7 °C 1015.1 in /  34371.3 hPa Calm   3.2 mph /  5.1 km/h 95 % 1.5 in /  38.1 mm
11:58 8.2 °F /  -13.2 °C 7.4 °F /  -13.7 °C 1015.1 in /  34371.3 hPa SSW 3.2 mph /  5.1 km/h 3.2 mph /  5.1 km/h 95 % 1.5 in /  38.1 mm
12:04 8.2 °F /  -13.2 °C 7.6 °F /  -13.6 °C 1015.1 in /  34371.3 hPa Calm   1.6 mph /  2.6 km/h 96 % 2.3 in /  58.42 mm
12:10 8.2 °F /  -13.2 °C 7.6 °F /  -13.6 °C 1015.1 in /  34371.3 hPa Calm   1.6 mph /  2.6 km/h 96 % 2.3 in /  58.42 mm
12:16 8.2 °F /  -13.2 °C 7.6 °F /  -13.6 °C 1015.1 in /  34371.3 hPa SW 3.2 mph /  5.1 km/h 3.2 mph /  5.1 km/h 96 % 2.5 in /  63.5 mm
12:22 8.2 °F /  -13.2 °C 7.6 °F /  -13.6 °C 1015.1 in /  34371.3 hPa SSW 1.4 mph /  2.3 km/h 1.6 mph /  2.6 km/h 96 % 3.0 in /  76.2 mm
12:28 8.2 °F /  -13.2 °C 7.6 °F /  -13.6 °C 1015.1 in /  34371.3 hPa Calm   3.2 mph /  5.1 km/h 96 % 3.3 in /  83.82 mm
12:34 8.2 °F /  -13.2 °C 7.6 °F /  -13.6 °C 1015.1 in /  34371.3 hPa SSW 1.4 mph /  2.3 km/h 3.2 mph /  5.1 km/h 96 % 3.3 in /  83.82 mm
12:40 8.2 °F /  -13.2 °C 7.6 °F /  -13.6 °C 1014.8 in /  34361.1 hPa SSW 1.4 mph /  2.3 km/h 3.2 mph /  5.1 km/h 96 % 3.6 in /  91.44 mm
12:46 8.2 °F /  -13.2 °C 7.6 °F /  -13.6 °C 1015.1 in /  34371.3 hPa SSW 1.4 mph /  2.3 km/h 3.2 mph /  5.1 km/h 96 % 3.8 in /  96.52 mm
12:52 8.3 °F /  -13.2 °C 7.7 °F /  -13.5 °C 1014.8 in /  34361.1 hPa SSW 3.2 mph /  5.1 km/h 3.2 mph /  5.1 km/h 96 % 3.6 in /  91.44 mm
12:58 8.2 °F /  -13.2 °C 7.6 °F /  -13.6 °C 1014.8 in /  34361.1 hPa Calm   1.6 mph /  2.6 km/h 96 % 3.6 in /  91.44 mm
13:04 8.2 °F /  -13.2 °C 7.6 °F /  -13.6 °C 1014.8 in /  34361.1 hPa South 1.4 mph /  2.3 km/h 4.8 mph /  7.7 km/h 96 % 3.0 in /  76.2 mm
13:10 8.3 °F /  -13.2 °C 7.7 °F /  -13.5 °C 1014.4 in /  34347.6 hPa South 1.4 mph /  2.3 km/h 3.2 mph /  5.1 km/h 96 % 3.0 in /  76.2 mm
13:16 8.3 °F /  -13.2 °C 7.7 °F /  -13.5 °C 1014.4 in /  34347.6 hPa Calm     96 % 2.5 in /  63.5 mm
13:22 8.3 °F /  -13.2 °C 7.7 °F /  -13.5 °C 1014.4 in /  34347.6 hPa Calm     96 % 2.3 in /  58.42 mm
13:28 8.3 °F /  -13.2 °C 7.7 °F /  -13.5 °C 1014.1 in /  34337.4 hPa Calm     96 % 1.8 in /  45.72 mm
13:34 8.3 °F /  -13.2 °C 7.7 °F /  -13.5 °C 1014.1 in /  34337.4 hPa Calm     96 % 1.5 in /  38.1 mm
13:40 8.4 °F /  -13.1 °C 7.8 °F /  -13.4 °C 1013.8 in /  34327.3 hPa Calm     96 % 1.3 in /  33.02 mm
13:46 8.4 °F /  -13.1 °C 7.8 °F /  -13.4 °C 1013.8 in /  34327.3 hPa Calm     96 % 1.0 in /  25.4 mm
13:52 8.4 °F /  -13.1 °C 7.8 °F /  -13.4 °C 1013.4 in /  34313.7 hPa Calm     96 % 1.0 in /  25.4 mm
13:58 8.4 °F /  -13.1 °C 7.8 °F /  -13.4 °C 1013.4 in /  34313.7 hPa Calm     96 % 0.8 in /  20.32 mm
14:04 8.5 °F /  -13.1 °C 7.9 °F /  -13.4 °C 1013.4 in /  34313.7 hPa Calm     96 % 1.0 in /  25.4 mm
14:10 8.6 °F /  -13 °C 8.0 °F /  -13.3 °C 1013.4 in /  34313.7 hPa Calm     96 % 1.3 in /  33.02 mm
14:16 8.6 °F /  -13 °C 8.0 °F /  -13.3 °C 1013.4 in /  34313.7 hPa Calm   1.6 mph /  2.6 km/h 96 % 1.3 in /  33.02 mm
14:22 8.6 °F /  -13 °C 8.0 °F /  -13.3 °C 1013.4 in /  34313.7 hPa Calm   1.6 mph /  2.6 km/h 96 % 1.5 in /  38.1 mm
14:28 8.7 °F /  -12.9 °C 8.1 °F /  -13.3 °C 1013.4 in /  34313.7 hPa South 1.4 mph /  2.3 km/h 3.2 mph /  5.1 km/h 96 % 2.0 in /  50.8 mm
14:34 8.6 °F /  -13 °C 8.0 °F /  -13.3 °C 1013.4 in /  34313.7 hPa SSE 1.4 mph /  2.3 km/h 3.2 mph /  5.1 km/h 96 % 2.3 in /  58.42 mm
14:40 8.6 °F /  -13 °C 8.0 °F /  -13.3 °C 1013.1 in /  34303.6 hPa Calm   1.6 mph /  2.6 km/h 96 % 2.3 in /  58.42 mm
14:46 8.6 °F /  -13 °C 8.0 °F /  -13.3 °C 1013.1 in /  34303.6 hPa Calm     96 % 2.8 in /  71.12 mm
14:52 8.6 °F /  -13 °C 8.0 °F /  -13.3 °C 1013.1 in /  34303.6 hPa Calm     96 % 3.0 in /  76.2 mm
14:58 8.7 °F /  -12.9 °C 8.3 °F /  -13.2 °C 1013.1 in /  34303.6 hPa Calm     97 % 3.3 in /  83.82 mm
15:04 8.7 °F /  -12.9 °C 8.3 °F /  -13.2 °C 1013.1 in /  34303.6 hPa Calm     97 % 3.3 in /  83.82 mm
15:10 8.7 °F /  -12.9 °C 8.3 °F /  -13.2 °C 1013.1 in /  34303.6 hPa SE 1.4 mph /  2.3 km/h 6.4 mph /  10.3 km/h 97 % 3.3 in /  83.82 mm
15:16 8.7 °F /  -12.9 °C 8.3 °F /  -13.2 °C 1013.1 in /  34303.6 hPa South 1.4 mph /  2.3 km/h 1.6 mph /  2.6 km/h 97 % 3.6 in /  91.44 mm
15:22 8.7 °F /  -12.9 °C 8.3 °F /  -13.2 °C 1013.1 in /  34303.6 hPa SW 1.4 mph /  2.3 km/h 3.2 mph /  5.1 km/h 97 % 3.3 in /  83.82 mm
15:28 8.7 °F /  -12.9 °C 8.3 °F /  -13.2 °C 1013.4 in /  34313.7 hPa SSW 3.2 mph /  5.1 km/h 8.0 mph /  12.9 km/h 97 % 3.6 in /  91.44 mm
15:34 8.8 °F /  -12.9 °C 8.3 °F /  -13.2 °C 1013.4 in /  34313.7 hPa SW 4.7 mph /  7.6 km/h 9.7 mph /  15.6 km/h 97 % 3.6 in /  91.44 mm
15:40 8.7 °F /  -12.9 °C 8.3 °F /  -13.2 °C 1013.4 in /  34313.7 hPa WNW 6.4 mph /  10.3 km/h 8.0 mph /  12.9 km/h 97 % 3.8 in /  96.52 mm
15:46 8.4 °F /  -13.1 °C 7.8 °F /  -13.4 °C 1013.4 in /  34313.7 hPa Calm   1.6 mph /  2.6 km/h 96 % 3.8 in /  96.52 mm
15:52 8.1 °F /  -13.3 °C 7.5 °F /  -13.6 °C 1013.4 in /  34313.7 hPa West 1.4 mph /  2.3 km/h 1.6 mph /  2.6 km/h 96 % 4.1 in /  104.14 mm
15:58 8.0 °F /  -13.3 °C 7.4 °F /  -13.7 °C 1013.1 in /  34303.6 hPa NE 3.2 mph /  5.1 km/h 6.4 mph /  10.3 km/h 96 % 4.1 in /  104.14 mm
16:04 8.0 °F /  -13.3 °C 7.4 °F /  -13.7 °C 1013.1 in /  34303.6 hPa NE 3.2 mph /  5.1 km/h 8.0 mph /  12.9 km/h 96 % 4.1 in /  104.14 mm
16:10 7.9 °F /  -13.4 °C 7.3 °F /  -13.7 °C 1013.1 in /  34303.6 hPa ENE 4.7 mph /  7.6 km/h 4.8 mph /  7.7 km/h 96 % 3.8 in /  96.52 mm
16:16 7.9 °F /  -13.4 °C 7.3 °F /  -13.7 °C 1012.8 in /  34293.4 hPa NNE 17.7 mph /  28.5 km/h 19.3 mph /  31.1 km/h 96 % 3.6 in /  91.44 mm
16:22 7.8 °F /  -13.4 °C 7.2 °F /  -13.8 °C 1013.1 in /  34303.6 hPa NNE 6.4 mph /  10.3 km/h 16.1 mph /  25.9 km/h 96 % 3.6 in /  91.44 mm
16:28 7.8 °F /  -13.4 °C 7.2 °F /  -13.8 °C 1013.4 in /  34313.7 hPa NW 6.4 mph /  10.3 km/h 12.9 mph /  20.8 km/h 96 % 3.3 in /  83.82 mm
16:35 7.6 °F /  -13.6 °C 7.0 °F /  -13.9 °C 1013.4 in /  34313.7 hPa NNE 9.7 mph /  15.6 km/h 25.7 mph /  41.4 km/h 96 % 4.8 in /  121.92 mm
16:41 7.2 °F /  -13.8 °C 6.5 °F /  -14.2 °C 1013.4 in /  34313.7 hPa NNW 13.0 mph /  20.9 km/h 24.1 mph /  38.8 km/h 95 % 5.3 in /  134.62 mm
16:47 7.1 °F /  -13.8 °C 6.4 °F /  -14.2 °C 1013.4 in /  34313.7 hPa NNW 9.7 mph /  15.6 km/h 16.1 mph /  25.9 km/h 95 % 5.6 in /  142.24 mm
16:53 7.0 °F /  -13.9 °C 6.3 °F /  -14.3 °C 1013.4 in /  34313.7 hPa NW 7.9 mph /  12.7 km/h 11.3 mph /  18.2 km/h 95 % 5.1 in /  129.54 mm
16:59 6.9 °F /  -13.9 °C 6.2 °F /  -14.3 °C 1013.4 in /  34313.7 hPa NNW 16.3 mph /  26.2 km/h 16.3 mph /  26.2 km/h 95 % 5.1 in /  129.54 mm
17:05 6.9 °F /  -13.9 °C 6.2 °F /  -14.3 °C 1013.4 in /  34313.7 hPa North 7.9 mph /  12.7 km/h 9.7 mph /  15.6 km/h 95 % 5.1 in /  129.54 mm
17:11 6.9 °F /  -13.9 °C 6.2 °F /  -14.3 °C 1013.4 in /  34313.7 hPa North 7.9 mph /  12.7 km/h 12.9 mph /  20.8 km/h 95 % 5.1 in /  129.54 mm
17:17 6.9 °F /  -13.9 °C 6.2 °F /  -14.3 °C 1013.4 in /  34313.7 hPa North 6.4 mph /  10.3 km/h 11.3 mph /  18.2 km/h 95 % 5.3 in /  134.62 mm
17:23 6.9 °F /  -13.9 °C 6.2 °F /  -14.3 °C 1013.4 in /  34313.7 hPa NNW 6.4 mph /  10.3 km/h 8.0 mph /  12.9 km/h 95 % 5.6 in /  142.24 mm
17:29 6.9 °F /  -13.9 °C 6.2 °F /  -14.3 °C 1013.8 in /  34327.3 hPa NNW 6.4 mph /  10.3 km/h 8.0 mph /  12.9 km/h 95 % 5.1 in /  129.54 mm
17:35 6.9 °F /  -13.9 °C 6.3 °F /  -14.3 °C 1013.4 in /  34313.7 hPa NE 3.2 mph /  5.1 km/h 9.7 mph /  15.6 km/h 96 % 3.6 in /  91.44 mm
17:41 6.8 °F /  -14 °C 6.2 °F /  -14.3 °C 1013.4 in /  34313.7 hPa NNE 7.9 mph /  12.7 km/h 9.7 mph /  15.6 km/h 96 % 3.3 in /  83.82 mm
17:47 6.8 °F /  -14 °C 6.2 °F /  -14.3 °C 1013.4 in /  34313.7 hPa NNW 4.7 mph /  7.6 km/h 9.7 mph /  15.6 km/h 96 % 3.0 in /  76.2 mm
17:53 6.8 °F /  -14 °C 6.2 °F /  -14.3 °C 1013.4 in /  34313.7 hPa WNW 1.4 mph /  2.3 km/h 11.3 mph /  18.2 km/h 96 % 2.8 in /  71.12 mm
17:59 6.8 °F /  -14 °C 6.2 °F /  -14.3 °C 1013.4 in /  34313.7 hPa WNW 4.7 mph /  7.6 km/h 9.7 mph /  15.6 km/h 96 % 2.5 in /  63.5 mm
18:05 6.8 °F /  -14 °C 6.2 °F /  -14.3 °C 1013.4 in /  34313.7 hPa NNE 3.2 mph /  5.1 km/h 8.0 mph /  12.9 km/h 96 % 2.5 in /  63.5 mm
18:11 6.8 °F /  -14 °C 6.2 °F /  -14.3 °C 1013.8 in /  34327.3 hPa Calm   6.4 mph /  10.3 km/h 96 % 2.3 in /  58.42 mm
18:17 6.7 °F /  -14.1 °C 6.1 °F /  -14.4 °C 1013.8 in /  34327.3 hPa North 3.2 mph /  5.1 km/h 6.4 mph /  10.3 km/h 96 % 2.3 in /  58.42 mm
18:23 6.7 °F /  -14.1 °C 6.1 °F /  -14.4 °C 1013.8 in /  34327.3 hPa NE 1.4 mph /  2.3 km/h 4.8 mph /  7.7 km/h 96 % 1.8 in /  45.72 mm
18:29 6.7 °F /  -14.1 °C 6.1 °F /  -14.4 °C 1014.1 in /  34337.4 hPa Calm   3.2 mph /  5.1 km/h 96 % 1.5 in /  38.1 mm
18:35 6.7 °F /  -14.1 °C 6.1 °F /  -14.4 °C 1014.1 in /  34337.4 hPa Calm   1.6 mph /  2.6 km/h 96 % 1.5 in /  38.1 mm
18:41 6.7 °F /  -14.1 °C 6.1 °F /  -14.4 °C 1014.1 in /  34337.4 hPa Calm     96 % 1.3 in /  33.02 mm
18:47 6.7 °F /  -14.1 °C 6.1 °F /  -14.4 °C 1014.1 in /  34337.4 hPa Calm     96 % 1.3 in /  33.02 mm
18:53 6.6 °F /  -14.1 °C 6.0 °F /  -14.4 °C 1014.1 in /  34337.4 hPa Calm     96 % 1.3 in /  33.02 mm
18:59 6.7 °F /  -14.1 °C 6.1 °F /  -14.4 °C 1014.4 in /  34347.6 hPa Calm   1.6 mph /  2.6 km/h 96 % 1.3 in /  33.02 mm
19:05 6.6 °F /  -14.1 °C 6.0 °F /  -14.4 °C 1014.4 in /  34347.6 hPa Calm   1.6 mph /  2.6 km/h 96 % 1.3 in /  33.02 mm
19:11 6.6 °F /  -14.1 °C 6.0 °F /  -14.4 °C 1014.4 in /  34347.6 hPa Calm     96 % 1.5 in /  38.1 mm
19:17 6.6 °F /  -14.1 °C 6.0 °F /  -14.4 °C 1014.4 in /  34347.6 hPa Calm     96 % 1.5 in /  38.1 mm
19:23 6.6 °F /  -14.1 °C 6.0 °F /  -14.4 °C 1014.4 in /  34347.6 hPa Calm     96 % 1.8 in /  45.72 mm
19:29 6.6 °F /  -14.1 °C 6.0 °F /  -14.4 °C 1014.4 in /  34347.6 hPa Calm     96 % 1.8 in /  45.72 mm
19:35 6.6 °F /  -14.1 °C 6.0 °F /  -14.4 °C 1014.4 in /  34347.6 hPa Calm     96 % 1.8 in /  45.72 mm
19:41 6.5 °F /  -14.2 °C 5.9 °F /  -14.5 °C 1014.4 in /  34347.6 hPa Calm     96 % 2.0 in /  50.8 mm
19:48 6.5 °F /  -14.2 °C 5.9 °F /  -14.5 °C 1014.4 in /  34347.6 hPa Calm     96 % 2.0 in /  50.8 mm
19:54 6.5 °F /  -14.2 °C 5.9 °F /  -14.5 °C 1014.4 in /  34347.6 hPa Calm     96 % 2.0 in /  50.8 mm
20:00 6.5 °F /  -14.2 °C 6.1 °F /  -14.4 °C 1014.8 in /  34361.1 hPa Calm     97 % 2.0 in /  50.8 mm
20:06 6.6 °F /  -14.1 °C 6.2 °F /  -14.3 °C 1014.8 in /  34361.1 hPa Calm     97 % 2.0 in /  50.8 mm
20:12 6.6 °F /  -14.1 °C 6.2 °F /  -14.3 °C 1014.8 in /  34361.1 hPa SW 1.4 mph /  2.3 km/h 1.6 mph /  2.6 km/h 97 % 1.8 in /  45.72 mm
20:18 6.6 °F /  -14.1 °C 6.2 °F /  -14.3 °C 1014.8 in /  34361.1 hPa WSW 1.4 mph /  2.3 km/h 3.2 mph /  5.1 km/h 97 % 1.8 in /  45.72 mm
20:24 6.6 °F /  -14.1 °C 6.2 °F /  -14.3 °C 1015.1 in /  34371.3 hPa SW 3.2 mph /  5.1 km/h 3.2 mph /  5.1 km/h 97 % 1.5 in /  38.1 mm
20:30 6.5 °F /  -14.2 °C 6.1 °F /  -14.4 °C 1015.1 in /  34371.3 hPa Calm   3.2 mph /  5.1 km/h 97 % 1.5 in /  38.1 mm
20:36 6.4 °F /  -14.2 °C 5.8 °F /  -14.6 °C 1015.1 in /  34371.3 hPa WSW 3.2 mph /  5.1 km/h 3.2 mph /  5.1 km/h 96 % 1.5 in /  38.1 mm
20:42 6.3 °F /  -14.3 °C 5.9 °F /  -14.5 °C 1015.1 in /  34371.3 hPa Calm   1.6 mph /  2.6 km/h 97 % 1.5 in /  38.1 mm
20:48 6.3 °F /  -14.3 °C 5.9 °F /  -14.5 °C 1014.8 in /  34361.1 hPa Calm     97 % 1.3 in /  33.02 mm
20:54 6.3 °F /  -14.3 °C 5.9 °F /  -14.5 °C 1014.8 in /  34361.1 hPa Calm   1.6 mph /  2.6 km/h 97 % 1.5 in /  38.1 mm
21:00 6.2 °F /  -14.3 °C 5.8 °F /  -14.6 °C 1014.8 in /  34361.1 hPa Calm   1.6 mph /  2.6 km/h 97 % 1.3 in /  33.02 mm
21:06 6.2 °F /  -14.3 °C 5.8 °F /  -14.6 °C 1014.8 in /  34361.1 hPa Calm   1.6 mph /  2.6 km/h 97 % 1.0 in /  25.4 mm
21:12 6.2 °F /  -14.3 °C 5.8 °F /  -14.6 °C 1014.8 in /  34361.1 hPa Calm     97 % 0.8 in /  20.32 mm
21:18 6.2 °F /  -14.3 °C 5.8 °F /  -14.6 °C 1014.8 in /  34361.1 hPa Calm     97 % 0.5 in /  12.7 mm
21:24 6.2 °F /  -14.3 °C 5.8 °F /  -14.6 °C 1015.1 in /  34371.3 hPa Calm     97 % 0.5 in /  12.7 mm
21:30 6.2 °F /  -14.3 °C 5.8 °F /  -14.6 °C 1015.1 in /  34371.3 hPa Calm     97 % 0.5 in /  12.7 mm
21:36 6.1 °F /  -14.4 °C 5.7 °F /  -14.6 °C 1014.8 in /  34361.1 hPa Calm     97 % 0.5 in /  12.7 mm
21:42 6.1 °F /  -14.4 °C 5.7 °F /  -14.6 °C 1015.1 in /  34371.3 hPa Calm     97 % 0.3 in /  7.62 mm
21:48 6.1 °F /  -14.4 °C 5.7 °F /  -14.6 °C 1015.1 in /  34371.3 hPa Calm     97 % 0.3 in /  7.62 mm
21:54 6.0 °F /  -14.4 °C 5.6 °F /  -14.7 °C 1015.1 in /  34371.3 hPa Calm     97 % 0.0 in /  0 mm
22:00 6.0 °F /  -14.4 °C 5.6 °F /  -14.7 °C 1015.1 in /  34371.3 hPa Calm     97 % 0.0 in /  0 mm
22:06 6.0 °F /  -14.4 °C 5.6 °F /  -14.7 °C 1015.1 in /  34371.3 hPa Calm     97 % 0.0 in /  0 mm
22:12 6.1 °F /  -14.4 °C 5.7 °F /  -14.6 °C 1015.1 in /  34371.3 hPa Calm     97 % 0.3 in /  7.62 mm
22:18 6.1 °F /  -14.4 °C 5.7 °F /  -14.6 °C 1015.1 in /  34371.3 hPa Calm     97 % 0.3 in /  7.62 mm
22:24 6.1 °F /  -14.4 °C 5.7 °F /  -14.6 °C 1015.1 in /  34371.3 hPa Calm     97 % 0.3 in /  7.62 mm
22:30 6.1 °F /  -14.4 °C 5.7 °F /  -14.6 °C 1015.5 in /  34384.8 hPa Calm     97 % 0.3 in /  7.62 mm
22:36 6.1 °F /  -14.4 °C 5.7 °F /  -14.6 °C 1015.5 in /  34384.8 hPa Calm     97 % 0.3 in /  7.62 mm
22:42 6.1 °F /  -14.4 °C 5.7 °F /  -14.6 °C 1015.5 in /  34384.8 hPa Calm     97 % 0.3 in /  7.62 mm
22:48 6.1 °F /  -14.4 °C 5.7 °F /  -14.6 °C 1015.5 in /  34384.8 hPa Calm     97 % 0.3 in /  7.62 mm
22:54 6.1 °F /  -14.4 °C 5.7 °F /  -14.6 °C 1015.5 in /  34384.8 hPa Calm     97 % 0.3 in /  7.62 mm
23:00 6.1 °F /  -14.4 °C 5.7 °F /  -14.6 °C 1015.8 in /  34395 hPa Calm     97 % 0.3 in /  7.62 mm
23:06 6.1 °F /  -14.4 °C 5.7 °F /  -14.6 °C 1015.8 in /  34395 hPa Calm     97 % 0.3 in /  7.62 mm
23:12 6.1 °F /  -14.4 °C 5.7 °F /  -14.6 °C 1016.1 in /  34405.1 hPa Calm     97 % 0.0 in /  0 mm
23:18 6.1 °F /  -14.4 °C 5.7 °F /  -14.6 °C 1016.1 in /  34405.1 hPa SW 1.4 mph /  2.3 km/h 1.6 mph /  2.6 km/h 97 % 0.0 in /  0 mm
23:24 6.1 °F /  -14.4 °C 5.7 °F /  -14.6 °C 1016.1 in /  34405.1 hPa SW 1.4 mph /  2.3 km/h 1.6 mph /  2.6 km/h 97 % 0.3 in /  7.62 mm
23:30 6.1 °F /  -14.4 °C 5.7 °F /  -14.6 °C 1016.1 in /  34405.1 hPa SW 1.4 mph /  2.3 km/h 3.2 mph /  5.1 km/h 97 % 0.3 in /  7.62 mm
23:36 6.0 °F /  -14.4 °C 5.6 °F /  -14.7 °C 1016.1 in /  34405.1 hPa Calm   3.2 mph /  5.1 km/h 97 % 0.3 in /  7.62 mm
23:42 5.9 °F /  -14.5 °C 5.5 °F /  -14.7 °C 1016.1 in /  34405.1 hPa West 1.4 mph /  2.3 km/h 1.6 mph /  2.6 km/h 97 % 0.3 in /  7.62 mm
23:48 5.9 °F /  -14.5 °C 5.5 °F /  -14.7 °C 1016.1 in /  34405.1 hPa Calm   1.6 mph /  2.6 km/h 97 % 0.5 in /  12.7 mm
23:54 5.9 °F /  -14.5 °C 5.5 °F /  -14.7 °C 1015.8 in /  34395 hPa Calm   1.6 mph /  2.6 km/h 97 % 0.5 in /  12.7 mm
Meteo18
Compliments of Weather Underground - 4 mb

Script developed by  Jim McMurry - jmcmurry@mwt.net Adapted for the template by  Wim van der Kuil - Leuven-Template.eu

You find our weather info also at:

European Weather Network

Weather Underground

Equipment we use:

Weather-station
Davis Vue

Weather-program
Meteobridge

Weather-server
Raspberry PI 2 B+

Provider
1 and 1

Davis Vue

Meteobridge

Raspberry PI 2 B+

1 and 1